www.pogodaiklimat.ru

Погода и климат >> Архив погоды >> Россия >> Краснодарский край >> Геленджик


АРХИВ ПОГОДЫ в Геленджике

Время (UTC), дата Ветер
(напр.,м/с)
 
Видим.   Явления Облачность Т
(С)
Тd
(С)
f
(%)
Тe
(С)
Тes
(С)
Комфортность P
(гПа)
Po
(гПа)
Тmin
(С)
Tmax
(С)
R
(мм)
R24
(мм)
S
(см)
09 12.03 С 2 50 км 10/4 1000 м
[Sc Ac trans Cc]
+14.1 +4.9 54 +14 +17 тепло 1009.0 1007.1
12 12.03 СВ 3 50 км 10/0
[Ac As]
+14.5 +4.2 50 +14 +15 тепло 1008.3 1006.4
15 12.03 В 3 50 км 10/4 600 м
[Sc Ac und]
+12.7 +4.4 57 +12 +12 тепло 1008.4 1006.5 +16.8
18 12.03 СВ 1 10 км слаб. дождь 10/10 300 м
[Frnb Ns]
+9.5 +7.5 87 +9 +9 тепло 1010.8 1008.8
21 12.03 СВ 1 10 км слаб. дождь 10/10 300 м
[Frnb Ns]
+7.4 +6.4 93 +6 +6 тепло 1011.2 1009.2
00 13.03 СВ 2 10 км слаб. дождь 10/10 300 м
[Frnb Ns]
+6.7 +5.7 93 +4 +4 тепло 1011.4 1009.4
03 13.03 С 2 4000 м дождь 10/10 300 м
[Frnb Ns]
+5.2 +4.0 92 +2 +2 по сезону 1011.5 1009.5 +5.1 10
06 13.03 С 6-12
{13}
10 км слаб. ливневой дождь 10/10 600 м
[Cb cap]
+4.2 +1.5 83 -1 -1 по сезону 1011.9 1009.9 +4.2
09 13.03 СВ 5-12
{13}
10 км слаб. ливневой дождь 10/10 600 м
[Cb cap]
+4.5 +1.5 81 -0 -0 по сезону 1012.8 1010.8
12 13.03 СВ 5-11
{11}
20 км {ливн. осадки} 10/10 600 м
[Sc]
+4.8 +0.5 74 0 0 прохладно 1013.6 1011.6
15 13.03 В 3
{14}
50 км 9/5 600 м
[Sc Ac trans Ci fib]
+5.0 +0.4 72 +2 +2 по сезону 1015.1 1013.1 +5.8 7
18 13.03 З 2
{12}
10 км 3/0
[Ci fib]
+4.6 -1.9 63 +2 +2 по сезону 1016.2 1014.2
21 13.03 В 2 10 км ясно +5.0 -5.6 46 +3 +3 по сезону 1016.2 1014.2
00 14.03 СВ 5-11
{12}
10 км ясно +4.4 -6.8 44 0 0 по сезону 1016.0 1014.0
03 14.03 СВ 4
{11}
10 км ясно +4.1 -1.1 69 0 0 по сезону 1015.8 1013.8 +3.7
06 14.03 СВ 5 50 км 8/5 600 м
[Sc diur, vesp Ac trans Ci fib]
+6.8 -0.1 61 +3 +4 по сезону 1015.0 1013.0
09 14.03 СВ 3
{12}
50 км 1/1 600 м
[Sc]
+12.3 +3.2 54 +11 +19 тепло 1013.5 1011.5
12 14.03 З 1 50 км 4/3 600 м
[Cu Sc Ac trans]
+10.9 +5.3 68 +11 +16 тепло 1013.0 1011.0
15 14.03 З 2 50 км 8/8 600 м
[Cu Sc Ac trans]
+8.8 +4.0 72 +7 +7 тепло 1012.2 1010.2 +13.0
18 14.03 штиль 0 10 км 10/10 600 м
[Sc]
+7.3 +3.5 77 +7 +7 тепло 1011.2 1009.2
21 14.03 штиль 0 10 км 8/5 600 м
[Sc Ac trans]
+5.9 +3.2 83 +5 +5 тепло 1010.2 1008.2
00 15.03 В 1 10 км 10/10 600 м
[Sc]
+7.4 +4.4 81 +7 +7 тепло 1009.7 1007.7
03 15.03 В 1 10 км 10/10 600 м
[Sc]
+7.6 +4.4 80 +7 +7 тепло 1009.2 1007.2 +5.6
06 15.03 ЮВ 1 20 км 10/10 600 м
[Sc]
+8.5 +4.6 76 +8 +8 тепло 1009.1 1007.1
09 15.03 ЮВ 2 20 км 10/10 600 м
[Sc]
+9.0 +5.5 79 +7 +7 тепло 1008.6 1006.6
12 15.03 ЮЗ 1 50 км 10/10 600 м
[Sc]
+9.1 +5.3 77 +9 +9 тепло 1008.5 1006.5
15 15.03 З 1 10 км слаб. дождь 10/10 600 м
[Sc]
+8.2 +5.1 81 +7 +7 тепло 1008.1 1006.1 +9.6
18 15.03 З 3 10 км слаб. дождь 10/10 300 м
[St]
+7.2 +5.8 91 +4 +4 по сезону 1009.4 1007.4
21 15.03 СЗ 1 10 км {дождь} 10/10 300 м
[St]
+6.6 +4.1 84 +6 +6 тепло 1009.7 1007.7
00 16.03 СЗ 1 10 км {дождь} 10/10 300 м
[St]
+7.1 +3.9 80 +6 +6 тепло 1009.6 1007.6
03 16.03 С 1 10 км 10/10 600 м
[Sc]
+6.5 +4.0 84 +5 +5 тепло 1009.5 1007.5 +6.3 0.4
06 16.03 штиль 0 50 км 10/10 600 м
[Sc]
+7.6 +3.8 77 +7 +7 тепло 1009.9 1007.9
09 16.03 З 4 50 км 10/8 1000 м
[Sc Ac As Cc]
+8.6 +2.4 65 +6 +6 тепло 1009.7 1007.7
12 16.03 З 5 50 км 10/3 600 м
[Sc Ac As]
+9.1 +4.5 73 +6 +7 по сезону 1009.7 1007.7
15 16.03 З 5 50 км 10/8 600 м
[Sc Ac trans Cc]
+8.5 +2.6 66 +5 +5 по сезону 1010.7 1008.7 +10.0
18 16.03 ЮЗ 2 10 км 10/10 600 м
[Sc]
+8.0 +2.6 69 +6 +6 тепло 1011.6 1009.6
21 16.03 СВ 1 10 км 4/3 600 м
[Sc Cc]
+7.5 +3.4 75 +7 +7 тепло 1010.7 1008.7
00 17.03 ЮВ 4 10 км 10/3 600 м
[Sc Ac trans Cc]
+7.7 +3.3 74 +4 +4 тепло 1008.0 1006.0
03 17.03 ЮВ 4 10 км слаб. ливневой дождь 10/10 600 м
[Cb cap]
+7.0 +2.5 73 +4 +4 тепло 1007.9 1005.9 +6.7 0.4
06 17.03 В 3-10
{11}
10 км слаб. ливневой дождь 10/10 600 м
[Cb cap]
+6.0 +3.5 84 +3 +3 по сезону 1008.0 1006.0 +5.7
09 17.03 СВ 2 20 км в посл. час ливневой дождь 10/8 600 м
[Cb cap Ac und]
+8.2 +5.3 82 +6 +7 тепло 1008.7 1006.7
12 17.03 СЗ 2 10 км слаб. ливневой дождь 10/8 600 м
[Cb cap]
+6.8 +4.6 86 +5 +5 по сезону 1012.6 1010.6
15 17.03 З 2 20 км {ливн. осадки} 9/8 1000 м
[Sc Ac trans Ci fib]
+7.7 +3.2 73 +6 +6 тепло 1015.6 1013.6 +9.9 7
18 17.03 штиль 0 10 км {ливн. осадки} 9/6 600 м
[Cb cap Ac As Ci fib]
+6.9 +3.4 78 +6 +6 тепло 1018.2 1016.2
21 17.03 ЮЗ 4
{11}
10 км слаб. ливневой дождь 10/10 600 м
[Cb cap]
+6.5 +3.8 83 +3 +3 по сезону 1019.0 1017.0
00 18.03 В 1 10 км в посл. час ливневой дождь 8/6 600 м
[Cb cap Ac trans]
+5.8 +3.1 83 +5 +5 тепло 1019.9 1017.9
03 18.03 В 1 10 км 8/6 600 м
[Cu Sc Ac cast]
+5.6 +2.4 80 +5 +5 тепло 1021.2 1019.2 +4.6 1
06 18.03 СВ 2 10 км слаб. ливневой дождь 10/10 600 м
[Cb cap]
+6.4 +3.1 79 +4 +4 по сезону 1023.1 1021.1
09 18.03 В 1 10 км слаб. ливневой дождь 10/10 600 м
[Cb cap]
+7.1 +5.0 86 +6 +6 тепло 1023.9 1021.9
12 18.03 ЮВ 3 50 км {ливн. осадки} 8/5 600 м
[Sc diur, vesp Ac trans]
+9.1 +4.4 72 +7 +9 по сезону 1024.2 1022.2
15 18.03 штиль 0 50 км 4/3 600 м
[Sc diur, vesp Ac trans]
+9.3 +3.7 68 +9 +9 тепло 1023.8 1021.8 +10.0 8
18 18.03 штиль 0 10 км ясно +6.1 +3.9 86 +5 +5 по сезону 1024.6 1022.6
21 18.03 Ю 1 10 км ясно +5.7 +3.5 86 +5 +5 тепло 1023.8 1021.8
00 19.03 ЮВ 1 10 км ясно +6.9 +1.8 70 +6 +6 тепло 1023.7 1021.7
03 19.03 ЮВ 2 10 км ясно +7.1 +2.7 74 +5 +5 тепло 1024.0 1022.0 +4.2
06 19.03 С 1 50 км ясно +9.1 +4.2 71 +9 +14 тепло 1024.5 1022.5

 

Местоположение метеостанции Геленджик (Краснодарский край, Россия): широта 44.57 долгота 38.08 высота над уровнем моря 15 м.

В архиве по умолчанию представлена погода в Геленджике за последнюю неделю. Архивные данные за месяц целиком и за предыдущие месяцы, начиная с января 2011 года, Вы можете получить, выбрав интересующий диапазон дат из раскрывающегося списка и нажав кнопку "Ввод!".


*Определитесь, кто Вы:
робот инопланетянин человек

Внимание! Время в таблицах - всемирное. Для получения местного времени необходимо прибавить поправку, которая равна 3 ч.

Смотрите также архив погоды в соседних городах и на ближайших метеорологических станциях:

Погода в Новороссийске (Краснодарский край, Россия) (25 км)
Погода в Крымске (Краснодарский край, Россия) (39 км)
Погода в Джубге (Краснодарский край, Россия) (57 км)
Погода в Анапе (Краснодарский край, Россия) (72 км)
Погода в Славянске-на-Кубани (Краснодарский край, Россия) (79 км)
Погода в Горячем Ключе (Краснодарский край, Россия) (81 км)
Погода в Краснодаре (Краснодарский край, Россия) (92 км)
Погода в Туапсе (Краснодарский край, Россия) (95 км)
Погода в Горном (Краснодарский край, Россия) (100 км)
Погода в Темрюке (Краснодарский край, Россия) (100 км)

Пояснения к столбцам:

Ветер - указаны скорость ветра в м/с - средняя за 10 мин, порывы в срок и между сроками (в фигурных скобках) и направление, откуда дует ветер: С - северный, СВ - северо-восточный, В - восточный, ЮВ - юго-восточный, Ю - южный, ЮЗ - юго-западный, З - западный, СЗ - северо-западный.
Видимость - горизонтальная дальность видимости в метрах или километрах. При видимости от 1 до 10 км при отсутствии осадков обычно наблюдается дымка, при ухудшении видимости до 1 км и менее - туман. В сухую погоду видимость может ухудшаться дымом, пылью или мглою.
Явления - указаны атмосферные явления, наблюдавшиеся в срок или в последний час перед сроком; фигурными скобками обозначены явления, наблюдавшиеся между сроками (за 1-3 часа до срока); квадратными скобками обозначены град или гололедные отложения с указанием их диаметра в мм.
Облачность - указаны через наклонную черту общая и нижняя облачность в баллах и высота нижней границы облаков в метрах; квадратными скобками обозначены формы облаков: Ci - перистые, Cs - перисто-слоистые, Cc - перисто-кучевые, Ac - высококучевые, As - высокослоистые, Sc - слоисто-кучевые, Ns - слоисто-дождевые, Cu - кучевые, Cb - кучево-дождевые. Подробнее классификацию облаков см. в Атласе облаков (PDF).
T - Температура воздуха - температура, измеренная на высоте 2 м над землей.
Td - Температура точки росы - температура, при понижении до которой содержащийся в воздухе водяной пар достигнет насыщения.
f - Относительная влажность воздуха - влажноcть воздуха, измеренная на высоте 2 м над землей.
Te - Эффективная температура - температура, которую ощущает одетый по сезону человек в тени. Характеристика душности погоды. При расчете учитывается влияние влажности воздуха и скорости ветра на теплоощущения человека.
Tes - Эффективная температура на солнце - температура, которую ощущает человек, с поправкой на солнечный нагрев. Характеристика знойности погоды. Зависит от высоты солнца над горизонтом, облачности и скорости ветра. Ночью, в пасмурную погоду, а также при ветре 12 м/с и более поправка равна нулю.
P - Атмосферное давление - приведенное к уровню моря атмосферное давление.
Po - Атмосферное давление - измеренное на уровне метеостанции атмосферное давление.
Tmin - Минимальная температура - минимум температуры воздуха на высоте 2 м над землей.
Tmax - Максимальная температура - максимум температуры воздуха на высоте 2 м над землей.
R - Количество осадков - Количество выпавших осадков за период времени, мм. При наведении курсора мыши на число - период времени, за который выпало указанное количество осадков.
R24 - Количество осадков - Количество выпавших осадков за 24 часа, мм.
S - Снежный покров - Высота снежного покрова, см. При наведении курсора мыши на число - состояние снежного покрова и степень покрытия местности в баллах.